Шривпорт

США     32°28′04″N   93°46′47″W
темп.,
°C
ветер,
м/с
пор.,
м/с
влажн.,
%
обл.,
%
осадки,
мм/ч
давл.,
гПа
погр.,
м
20 января, ср
ср2000:00+11всв2679100 0.3 1029424
03:00+10ссв248393 0.0 1030241
06:00+10св257596 0.0 1029300
09:00+10в377194 0.0 1028483
12:00+12юв246397 0.0 1028529
15:00+15ююв256698 0.0 1023607
18:00+14ююв128199 0.0 102389
21:00+14ююз2789100 0.1 1022308
21 января, чт
чт2100:00+14ю2992100 0.2 1021321
03:00+15ююз31395100 0.1 1018600
06:00+15юз31296100 0.6 1017651
09:00+16юз41393100 1.6 1016807
12:00+17юз31196100 2.6 1015627
15:00+17юз31097100 1.1 1012577
18:00+17юз2699100 4.9 1011257
21:00+16ююз1399100 2.9 1011108
22 января, пт
пт2200:00+16ююз1299100 6.8 101045
03:00+16зюз129999 5.2 101035
06:00+16зсз119999 8.0 101144
09:00+14св498394 4.7 1013580
12:00+13св488097 5.3 1015614
15:00+11св4882100 0.1 1015582
18:00+10св4880100 0.1 1017572
21:00+9всв4976100 0.0 1019560
23 января, сб
сб2300:00+8всв497187 0.0 1020566
03:00+7всв487293 0.0 1020559
06:00+7всв487187 0.0 1020530
09:00+7в366536 0.0 1022532
12:00+11в355534 0.0 1021581
15:00+14вюв245741 0.0 1018683
18:00+13вюв247043 0.0 1017283
21:00+11вюв377567 0.0 1018319
24 января, вс
вс2400:00+11юв368083 0.0 1016370
03:00+11юв369080 0.5 1015262
06:00+12юв119987 0.5 101533
09:00+13юв2299100 0.1 101597
12:00+16ююв2697100 0.1 1014224
15:00+18ююв31098100 4.3 1010403
18:00+18ю31398100 8.1 1009622
21:00+18ююз31495100 0.1 1010730